This demonstration page uses our WeatherBlox Daily Observations layout. Learn more.

Left ArrowRight Arrow

41.86663, -103.66717

Hourly Observations for March 11, 2016

Temp ( °F °C ) Dew Point ( °F °C ) Humidity (%) Winds ( mph kmh ) Pressure ( in mb ) Visibility ( mi km ) Precip ( " mm )
12:53 am 00:53 Clear 35 1.7 29 -1.7 78 78 NE 9 15 30.06 1018 10 16 N/A
1:53 am 01:53 Clear 37 2.8 29 -1.7 73 73 N N/A 30.03 1017 10 16 N/A
2:53 am 02:53 Clear 33 0.6 27 -2.8 78 78 E 5 7 30.03 1017 10 16 N/A
3:53 am 03:53 Clear 34 1.1 27 -2.8 76 76 ESE 5 7 30.03 1017 10 16 N/A
4:53 am 04:53 Clear 31 -0.6 26 -3.3 82 82 N N/A 30.05 1018 10 16 N/A
5:53 am 05:53 Clear 31 -0.6 27 -2.8 85 85 N N/A 30.08 1019 10 16 N/A
6:53 am 06:53 Sunny 34 1.1 30 -1.1 85 85 N N/A 30.06 1018 10 16 N/A
7:53 am 07:53 Sunny 41 5 34 1.1 76 76 N N/A 30.08 1019 10 16 N/A
8:53 am 08:53 Sunny 46 7.8 34 1.1 63 63 N N/A 30.07 1018 10 16 N/A
9:53 am 09:53 Sunny 55 12.8 31 -0.6 40 40 N N/A 30.04 1017 10 16 N/A
10:53 am 10:53 Sunny 62 16.7 33 0.6 34 34 VRB 3 6 30.01 1016 10 16 N/A
11:53 am 11:53 Sunny 67 19.4 32 undefined 27 27 VRB 5 7 29.97 1015 10 16 N/A
12:53 pm 12:53 Sunny 73 22.8 30 -1.1 20 20 VRB 3 6 29.94 1014 10 16 N/A
1:53 pm 13:53 Sunny 75 23.9 25 -3.9 15 15 VRB 5 7 29.90 1013 10 16 N/A
2:53 pm 14:53 Sunny 74 23.3 21 -6.1 14 14 N N/A 29.91 1013 10 16 N/A
3:53 pm 15:53 Sunny 74 23.3 25 -3.9 16 16 ESE 7 11 29.88 1012 10 16 N/A
4:53 pm 16:53 Sunny 73 22.8 21 -6.1 14 14 SSE 10 17 29.88 1012 10 16 N/A
5:53 pm 17:53 Sunny 59 15 36 2.2 42 42 ESE 9 15 29.90 1013 10 16 N/A
6:53 pm 18:53 Clear 53 11.7 35 1.7 51 51 E 8 13 29.91 1013 10 16 N/A
7:53 pm 19:53 Clear 52 11.1 34 1.1 50 50 ESE 12 19 29.91 1013 10 16 N/A
8:53 pm 20:53 Clear 54 12.2 33 0.6 45 45 ESE 9 15 29.89 1012 10 16 N/A
9:53 pm 21:53 Clear 59 15 28 -2.2 31 31 SSE 17 28 29.84 1011 10 16 N/A
10:53 pm 22:53 Clear 55 12.8 28 -2.2 35 35 SE 13 20 29.85 1011 10 16 N/A
11:53 pm 23:53 Clear 53 11.7 27 -2.8 37 37 ESE 12 19 29.83 1010 10 16 N/A

Powered by AerisWeather